This is the latest recevied weather packets stored in our database for station/object CE2KVL-1. If no packets are shown the sender has not sent any weather packets the latest 10 day(s).
| Time | Temp. | Humidity | Pressure | Rain* | Wind** | Luminosity | Snow |
|---|---|---|---|---|---|---|---|
| 1778019183 | 17.22° C | 80% | 1018.3 hPa | - | - | - | - |
| 1778018884 | 17.22° C | 78% | 1018.7 hPa | - | - | - | - |
| 1778018583 | 17.22° C | 76% | 1018.4 hPa | - | - | - | - |
| 1778018283 | 17.78° C | 72% | 1018.2 hPa | - | - | - | - |
| 1778017983 | 17.78° C | 70% | 1018.1 hPa | - | - | - | - |
| 1778017683 | 17.78° C | 66% | 1017.8 hPa | - | - | - | - |
| 1778017383 | 17.78° C | 61% | 1017.4 hPa | - | - | - | - |
| 1778017083 | 17.78° C | 60% | 1017.5 hPa | - | - | - | - |
| 1778016783 | 17.78° C | 59% | 1017.2 hPa | - | - | - | - |
| 1778016483 | 17.78° C | 59% | 1017.1 hPa | - | - | - | - |
| 1778016183 | 17.78° C | 58% | 1017.1 hPa | - | - | - | - |
| 1778015883 | 17.78° C | 58% | 1017.1 hPa | - | - | - | - |
| 1778015584 | 17.78° C | 58% | 1017.3 hPa | - | - | - | - |
| 1778015283 | 18.33° C | 60% | 1017.1 hPa | - | - | - | - |
| 1778014983 | 18.33° C | 59% | 1017 hPa | - | - | - | - |
| 1778014683 | 18.33° C | 57% | 1017.3 hPa | - | - | - | - |
| 1778014383 | 18.33° C | 57% | 1017 hPa | - | - | - | - |
| 1778014083 | 18.33° C | 56% | 1017.2 hPa | - | - | - | - |
| 1778013783 | 18.33° C | 55% | 1017.2 hPa | - | - | - | - |
| 1778013483 | 18.33° C | 54% | 1017.1 hPa | - | - | - | - |
| 1778013183 | 18.33° C | 53% | 1017.2 hPa | - | - | - | - |
| 1778012583 | 18.89° C | 51% | 1016.8 hPa | - | - | - | - |
| 1778012283 | 18.89° C | 51% | 1016.8 hPa | - | - | - | - |
| 1778011983 | 18.89° C | 51% | 1016.7 hPa | - | - | - | - |
| 1778011683 | 18.89° C | 50% | 1016.8 hPa | - | - | - | - |
* Rain since midnight (hover to see other rain measurements)
** Current wind speed in m/s (hover to see current wind gust speed)